GW6489 Weather Reports


Display with metric or nautical units.
time (UTC)temp
F
wind
direction
speed
MPH
gust
MPH
rain 1hr
in
rain 24hr
in
rain mn
in
humidity
%
barometer
mb
20260504100453 46 99 0.0 1.0 0.00 0.00 0.00 71 990.8
20260504081846 49 99 0.0 1.0 0.00 0.00 0.00 59 991.2
20260504081343 49 99 1.0 2.0 0.00 0.00 0.00 58 990.8
20260504080839 48 94 1.0 2.0 0.00 0.00 0.00 59 990.9
20260504080336 48 93 0.0 1.0 0.00 0.00 0.00 60 990.9
20260504070303 47 86 0.0 0.0 0.00 0.00 0.00 69 991.2
20260504060224 46 86 0.0 0.0 0.00 0.00 0.00 68 991.4
20260504050652 46 152 0.0 0.0 0.00 0.00 0.00 68 991.8
20260504050149 46 152 0.0 0.0 0.00 0.00 0.00 70 991.7
20260504045646 46 152 0.0 0.0 0.00 0.00 0.00 70 991.6
20260504045146 46 152 0.0 0.0 0.00 0.00 0.00 70 991.6
20260504044644 46 152 0.0 0.0 0.00 0.00 0.00 68 991.4
20260504044140 46 182 0.0 0.0 0.00 0.00 0.00 65 991.5
20260504043637 46 182 0.0 0.0 0.00 0.00 0.00 64 991.6
20260504043135 46 182 0.0 0.0 0.00 0.00 0.00 63 991.4
20260504042632 46 182 0.0 0.0 0.00 0.00 0.00 62 991.2
20260504042129 46 182 0.0 0.0 0.00 0.00 0.00 63 991.3
20260504041624 45 182 0.0 0.0 0.00 0.00 0.00 66 991.5
20260504041121 45 182 0.0 0.0 0.00 0.00 0.00 66 991.7
20260504040618 45 182 0.0 0.0 0.00 0.00 0.00 66 991.5
20260504040115 45 182 0.0 0.0 0.00 0.00 0.00 64 991.6
20260504035612 45 182 0.0 0.0 0.00 0.00 0.00 65 991.6
20260504035108 45 182 0.0 0.0 0.00 0.00 0.00 64 991.5
20260504034606 45 182 0.0 0.0 0.00 0.00 0.00 64 991.8
20260504034102 45 182 0.0 0.0 0.00 0.00 0.00 64 991.8
20260504033600 45 182 0.0 0.0 0.00 0.00 0.00 64 991.7
20260504033057 45 181 0.0 0.0 0.00 0.00 0.00 63 991.4
20260504032554 45 182 0.0 1.0 0.00 0.00 0.00 64 991.5
20260504032051 45 194 0.0 1.0 0.00 0.00 0.00 64 991.6
20260504031548 45 194 0.0 0.0 0.00 0.00 0.00 63 991.5
20260504031044 45 194 0.0 0.0 0.00 0.00 0.00 63 991.4
20260504030542 44 194 0.0 0.0 0.00 0.00 0.00 66 991.6
20260504030038 43 194 0.0 0.0 0.00 0.00 0.00 69 991.3
20260504025535 43 194 0.0 0.0 0.00 0.00 0.00 73 991.4
20260504025032 43 194 0.0 0.0 0.00 0.00 0.00 73 991.3
20260504024529 43 194 0.0 0.0 0.00 0.00 0.00 73 991.4
20260504024026 44 194 0.0 0.0 0.00 0.00 0.00 71 991.4
20260504023522 44 194 0.0 0.0 0.00 0.00 0.00 68 991.7
20260504023018 44 194 0.0 0.0 0.00 0.00 0.00 68 991.3
20260504022514 44 194 0.0 0.0 0.00 0.00 0.00 68 991.3
20260504022011 44 194 0.0 0.0 0.00 0.00 0.00 67 991.3
20260504021509 44 194 0.0 0.0 0.00 0.00 0.00 67 991.0
20260504021005 44 194 0.0 0.0 0.00 0.00 0.00 67 991.2
20260504020502 44 194 0.0 0.0 0.00 0.00 0.00 66 991.0
20260504015959 45 194 0.0 0.0 0.00 0.00 0.00 65 991.1
20260504015455 45 194 0.0 0.0 0.00 0.00 0.00 64 991.1
20260504014951 45 194 0.0 0.0 0.00 0.00 0.00 63 990.8
20260504014447 46 194 0.0 0.0 0.00 0.00 0.00 62 990.9
20260504013944 46 194 0.0 0.0 0.00 0.00 0.00 60 990.7
20260504013443 47 194 0.0 0.0 0.00 0.00 0.00 59 991.0
20260504012938 48 194 0.0 0.0 0.00 0.00 0.00 59 990.6
20260504012436 49 194 0.0 0.0 0.00 0.00 0.00 55 990.6
20260504011934 49 194 0.0 0.0 0.00 0.00 0.00 54 990.7
20260504011430 50 194 0.0 0.0 0.00 0.00 0.00 52 990.4
20260504010926 51 194 0.0 0.0 0.00 0.00 0.00 51 990.6
20260504010422 51 193 0.0 0.0 0.00 0.00 0.00 50 990.4
20260504005919 51 194 0.0 0.0 0.00 0.00 0.00 50 990.4
20260504005415 51 193 0.0 0.0 0.00 0.00 0.00 47 990.3
20260504004913 52 193 0.0 0.0 0.00 0.00 0.00 45 990.2
20260504004411 52 193 0.0 0.0 0.00 0.00 0.00 44 990.2
20260504003907 52 193 0.0 0.0 0.00 0.00 0.00 45 990.1
20260504003404 53 193 0.0 0.0 0.00 0.00 0.00 42 990.0
20260504002900 54 193 0.0 0.0 0.00 0.00 0.00 42 990.1
20260504002357 55 193 0.0 0.0 0.00 0.00 0.00 39 990.1
20260504001855 56 193 0.0 0.0 0.00 0.00 0.00 35 990.1
20260504001352 56 193 0.0 0.0 0.00 0.00 0.00 33 990.0
20260504000848 56 193 0.0 0.0 0.00 0.00 0.00 32 990.0
20260504000346 57 193 0.0 0.0 0.00 0.00 0.00 32 989.9
20260503235843 57 193 0.0 0.0 0.00 0.00 0.00 31 990.0
20260503235341 58 193 0.0 0.0 0.00 0.00 0.00 31 990.2
20260503234838 58 193 0.0 1.0 0.00 0.00 0.00 31 990.0
20260503234336 59 196 0.0 0.0 0.00 0.00 0.00 30 990.0
20260503233833 59 208 0.0 0.0 0.00 0.00 0.00 30 990.2
20260503233329 60 207 0.0 0.0 0.00 0.00 0.00 30 990.1
20260503232826 60 207 0.0 2.0 0.00 0.00 0.00 31 990.1
20260503232323 60 178 0.0 0.0 0.00 0.00 0.00 30 990.0
20260503231821 60 184 0.0 2.0 0.00 0.00 0.00 31 989.8
20260503231318 60 133 0.0 1.0 0.00 0.00 0.00 30 990.1
20260503230813 61 180 1.0 3.0 0.00 0.00 0.00 28 989.8
20260503230311 61 208 0.0 1.0 0.00 0.00 0.00 31 989.9
20260503225808 61 115 1.0 1.0 0.00 0.00 0.00 29 989.9
20260503225304 61 205 0.0 1.0 0.00 0.00 0.00 29 989.7
20260503224800 61 104 0.0 0.0 0.00 0.00 0.00 28 989.8
20260503224258 61 104 1.0 1.0 0.00 0.00 0.00 29 989.7
20260503223755 61 183 2.0 4.0 0.00 0.00 0.00 28 989.9
20260503223253 61 208 0.0 2.0 0.00 0.00 0.00 27 989.7
20260503222749 61 235 0.0 0.0 0.00 0.00 0.00 30 989.8
20260503222247 61 181 0.0 1.0 0.00 0.00 0.00 28 989.9
20260503221745 61 186 0.0 3.0 0.00 0.00 0.00 28 989.9
20260503221243 61 203 2.0 3.0 0.00 0.00 0.00 27 990.0
20260503220739 62 187 3.0 7.0 0.00 0.00 0.00 28 989.8
20260503220236 61 193 0.0 2.0 0.00 0.00 0.00 27 990.1
20260503215732 61 117 0.0 1.0 0.00 0.00 0.00 28 990.0
20260503215230 62 202 2.0 3.0 0.00 0.00 0.00 26 990.1
20260503214728 62 212 2.0 3.0 0.00 0.00 0.00 26 989.9
20260503214224 62 88 1.0 3.0 0.00 0.00 0.00 26 990.0
20260503213722 62 98 0.0 1.0 0.00 0.00 0.00 27 990.2
20260503213219 62 170 3.0 6.0 0.00 0.00 0.00 26 990.1
20260503212716 62 132 1.0 4.0 0.00 0.00 0.00 27 990.0
20260503212214 62 203 2.0 3.0 0.00 0.00 0.00 26 990.2
20260503211712 62 102 1.0 2.0 0.00 0.00 0.00 26 990.1
20260503211207 61 103 4.0 4.0 0.00 0.00 0.00 27 990.1
20260503210703 61 97 0.0 2.0 0.00 0.00 0.00 25 989.9
20260503210201 61 133 0.0 2.0 0.00 0.00 0.00 28 990.1
20260503205655 62 97 1.0 2.0 0.00 0.00 0.00 27 990.2
20260503205152 63 86 4.0 4.0 0.00 0.00 0.00 27 990.3
20260503204649 63 241 0.0 1.0 0.00 0.00 0.00 29 990.4
20260503204147 62 93 2.0 3.0 0.00 0.00 0.00 26 990.1
20260503203643 61 77 0.0 2.0 0.00 0.00 0.00 29 990.4
20260503203141 61 50 2.0 3.0 0.00 0.00 0.00 28 990.4
20260503202638 61 97 0.0 1.0 0.00 0.00 0.00 29 990.4
20260503202136 61 92 0.0 2.0 0.00 0.00 0.00 27 990.5
20260503201634 61 156 2.0 3.0 0.00 0.00 0.00 27 990.3
20260503201131 61 146 2.0 7.0 0.00 0.00 0.00 28 990.7
20260503200627 61 224 0.0 1.0 0.00 0.00 0.00 27 990.6
20260503200124 62 91 1.0 2.0 0.00 0.00 0.00 25 990.7
20260503195621 61 122 3.0 4.0 0.00 0.00 0.00 26 990.9
20260503195118 62 110 1.0 2.0 0.00 0.00 0.00 26 991.0
20260503194615 62 178 4.0 6.0 0.00 0.00 0.00 25 990.9
20260503194115 62 195 2.0 2.0 0.00 0.00 0.00 26 991.0
20260503193613 62 194 1.0 8.0 0.00 0.00 0.00 26 990.9
20260503193108 62 102 2.0 3.0 0.00 0.00 0.00 28 991.1
20260503192604 62 115 2.0 3.0 0.00 0.00 0.00 25 991.2
20260503192100 62 143 1.0 3.0 0.00 0.00 0.00 27 991.4
20260503191557 62 118 3.0 4.0 0.00 0.00 0.00 26 991.5
20260503191054 62 99 1.0 2.0 0.00 0.00 0.00 28 991.5
20260503190551 62 106 3.0 3.0 0.00 0.00 0.00 28 991.4
20260503190048 60 233 5.0 6.0 0.00 0.00 0.00 29 991.4
20260503185544 61 181 5.0 7.0 0.00 0.00 0.00 27 991.8
20260503185044 60 210 3.0 4.0 0.00 0.00 0.00 28 991.8
20260503184540 60 193 3.0 7.0 0.00 0.00 0.00 27 991.8
20260503184037 61 79 2.0 6.0 0.00 0.00 0.00 29 991.8
20260503183533 60 149 2.0 4.0 0.00 0.00 0.00 32 991.9
20260503183031 60 120 2.0 2.0 0.00 0.00 0.00 30 992.2
20260503182529 60 177 3.0 3.0 0.00 0.00 0.00 29 992.0
20260503182027 60 176 0.0 2.0 0.00 0.00 0.00 30 992.1
20260503181523 60 103 0.0 1.0 0.00 0.00 0.00 30 992.1
20260503181019 60 109 2.0 3.0 0.00 0.00 0.00 28 992.0
20260503180517 60 105 1.0 2.0 0.00 0.00 0.00 31 992.2
20260503180014 60 47 1.0 2.0 0.00 0.00 0.00 31 992.0
20260503175512 60 91 0.0 3.0 0.00 0.00 0.00 29 992.1
20260503175008 59 184 1.0 4.0 0.00 0.00 0.00 30 992.2
20260503174506 58 102 1.0 6.0 0.00 0.00 0.00 33 992.4
20260503174002 58 78 1.0 2.0 0.00 0.00 0.00 33 992.4
20260503173457 58 195 2.0 6.0 0.00 0.00 0.00 31 992.4
20260503172954 58 221 0.0 0.0 0.00 0.00 0.00 33 992.3
20260503172451 58 232 4.0 6.0 0.00 0.00 0.00 32 992.5
20260503171948 58 104 3.0 4.0 0.00 0.00 0.00 31 992.5
20260503171445 58 210 4.0 6.0 0.00 0.00 0.00 31 992.6
20260503170943 57 212 1.0 2.0 0.00 0.00 0.00 33 992.7
20260503170438 58 94 3.0 3.0 0.00 0.00 0.00 32 992.9
20260503150831 53 110 1.0 3.0 0.00 0.00 0.00 39 994.0
20260503150327 53 269 2.0 6.0 0.00 0.00 0.00 39 994.2
20260503140251 50 221 3.0 4.0 0.00 0.00 0.00 44 993.7
20260503131221 48 236 1.0 2.0 0.00 0.00 0.00 44 993.9
20260503130718 49 192 3.0 6.0 0.00 0.00 0.00 44 994.0
20260503130215 49 186 0.0 3.0 0.00 0.00 0.00 47 993.8
20260503120141 46 65 0.0 0.0 0.00 0.00 0.00 56 993.8
20260503110609 42 245 0.0 0.0 0.00 0.00 0.00 66 993.5
20260503110106 41 245 0.0 0.0 0.00 0.00 0.00 66 993.3